| time (UTC) | temp C | wind direction | speed KPH | gust KPH | rain 1hr cm | rain 24hr cm | rain mn cm | humidity % | barometer mb |
| 20260905182621 | 20 | 225 | 3.2 | 12.9 | 0.00 | 0.15 | 0.15 | 69 | 1023.1 |
| 20260905181231 | 20 | 225 | 3.2 | 12.9 | 0.00 | 0.15 | 0.15 | 69 | 1023.1 |
| 20260905175816 | 21 | 270 | 8.0 | 25.7 | 0.00 | 0.15 | 0.15 | 66 | 1023.0 |
| 20260905174416 | 21 | 270 | 8.0 | 25.7 | 0.00 | 0.15 | 0.15 | 66 | 1023.0 |
| 20260905172447 | 21 | 270 | 12.9 | 25.7 | 0.00 | 0.15 | 0.15 | 65 | 1022.8 |
| 20260905171127 | 21 | 270 | 12.9 | 25.7 | 0.00 | 0.15 | 0.15 | 65 | 1022.8 |
| 20260905165837 | 21 | 225 | 11.3 | 20.9 | 0.00 | 0.15 | 0.15 | 69 | 1022.7 |
| 20260905164412 | 21 | 225 | 11.3 | 20.9 | 0.00 | 0.15 | 0.15 | 69 | 1022.7 |
| 20260905163145 | 20 | 270 | 8.0 | 20.9 | 0.00 | 0.15 | 0.15 | 68 | 1022.9 |
| 20260905161857 | 20 | 270 | 8.0 | 20.9 | 0.00 | 0.15 | 0.15 | 68 | 1022.9 |
| 20260905160537 | 20 | 270 | 6.4 | 29.0 | 0.00 | 0.15 | 0.15 | 71 | 1023.3 |
| 20260905155102 | 20 | 270 | 6.4 | 29.0 | 0.00 | 0.15 | 0.15 | 71 | 1023.3 |
| 20260905153752 | 20 | 270 | 6.4 | 29.0 | 0.00 | 0.15 | 0.15 | 71 | 1023.3 |
| 20260905152342 | 18 | 225 | 9.7 | 29.0 | 0.00 | 0.15 | 0.15 | 80 | 1023.5 |
| 20260905151017 | 18 | 225 | 9.7 | 29.0 | 0.00 | 0.15 | 0.15 | 80 | 1023.5 |
| 20260905145632 | 18 | 270 | 19.3 | 33.8 | 0.00 | 0.15 | 0.15 | 74 | 1023.8 |
| 20260905144302 | 18 | 270 | 19.3 | 33.8 | 0.00 | 0.15 | 0.15 | 74 | 1023.8 |
| 20260905142952 | 20 | 270 | 11.3 | 30.6 | 0.00 | 0.13 | 0.13 | 67 | 1023.1 |
| 20260905141722 | 20 | 270 | 11.3 | 30.6 | 0.00 | 0.13 | 0.13 | 67 | 1023.1 |
| 20260905140359 | 21 | 270 | 9.7 | 17.7 | 0.00 | 0.13 | 0.13 | 74 | 1022.7 |
| 20260905135037 | 21 | 270 | 9.7 | 17.7 | 0.00 | 0.13 | 0.13 | 74 | 1022.7 |
| 20260905133817 | 21 | 270 | 9.7 | 17.7 | 0.00 | 0.13 | 0.13 | 74 | 1022.7 |
| 20260905132547 | 21 | 225 | 8.0 | 12.9 | 0.00 | 0.13 | 0.13 | 71 | 1022.4 |
| 20260905131307 | 21 | 225 | 8.0 | 12.9 | 0.00 | 0.13 | 0.13 | 71 | 1022.4 |
| 20260905130012 | 21 | 225 | 3.2 | 8.0 | 0.00 | 0.13 | 0.13 | 69 | 1022.7 |
| 20260905124702 | 21 | 225 | 3.2 | 8.0 | 0.00 | 0.13 | 0.13 | 69 | 1022.7 |
| 20260905123447 | 20 | 180 | 3.2 | 8.0 | 0.00 | 0.13 | 0.13 | 74 | 1022.8 |
| 20260905122157 | 20 | 180 | 3.2 | 8.0 | 0.00 | 0.13 | 0.13 | 74 | 1022.8 |
| 20260905120832 | 20 | 180 | 3.2 | 8.0 | 0.00 | 0.13 | 0.13 | 74 | 1022.8 |
| 20260905115522 | 20 | 90 | 3.2 | 11.3 | 0.00 | 0.13 | 0.13 | 74 | 1022.8 |
| 20260905114107 | 20 | 90 | 3.2 | 11.3 | 0.00 | 0.13 | 0.13 | 74 | 1022.8 |
| 20260905112757 | 19 | 45 | 3.2 | 11.3 | 0.00 | 0.13 | 0.13 | 74 | 1023.0 |
| 20260905111427 | 19 | 45 | 3.2 | 11.3 | 0.00 | 0.13 | 0.13 | 74 | 1023.0 |
| 20260905105948 | 19 | 0 | 8.0 | 14.5 | 0.00 | 0.13 | 0.13 | 69 | 1022.7 |
| 20260905104627 | 19 | 0 | 8.0 | 14.5 | 0.00 | 0.13 | 0.13 | 69 | 1022.7 |
| 20260905103337 | 20 | 0 | 8.0 | 11.3 | 0.00 | 0.13 | 0.13 | 76 | 1022.4 |
| 20260905101912 | 20 | 0 | 8.0 | 11.3 | 0.00 | 0.13 | 0.13 | 76 | 1022.4 |
| 20260905100612 | 20 | 0 | 8.0 | 11.3 | 0.00 | 0.13 | 0.13 | 76 | 1022.4 |
| 20260905095222 | 20 | 0 | 6.4 | 12.9 | 0.00 | 0.13 | 0.13 | 79 | 1022.3 |
| 20260905093927 | 20 | 0 | 6.4 | 12.9 | 0.00 | 0.13 | 0.13 | 79 | 1022.3 |
| 20260905092552 | 19 | 315 | 9.7 | 12.9 | 0.00 | 0.13 | 0.13 | 80 | 1022.0 |
| 20260905091222 | 19 | 315 | 9.7 | 12.9 | 0.00 | 0.13 | 0.13 | 80 | 1022.0 |
| 20260905085747 | 18 | 270 | 3.2 | 14.5 | 0.00 | 0.13 | 0.13 | 83 | 1021.6 |
| 20260905084502 | 18 | 270 | 3.2 | 14.5 | 0.00 | 0.13 | 0.13 | 83 | 1021.6 |
| 20260905083132 | 18 | 315 | 8.0 | 14.5 | 0.00 | 0.10 | 0.10 | 89 | 1021.4 |
| 20260905081734 | 18 | 315 | 8.0 | 14.5 | 0.00 | 0.10 | 0.10 | 89 | 1021.4 |
| 20260905080327 | 18 | 270 | 6.4 | 12.9 | 0.05 | 0.10 | 0.10 | 86 | 1021.3 |
| 20260905075017 | 18 | 270 | 6.4 | 12.9 | 0.05 | 0.10 | 0.10 | 86 | 1021.3 |
| 20260905073658 | 18 | 270 | 6.4 | 12.9 | 0.05 | 0.10 | 0.10 | 86 | 1021.3 |
| 20260905072214 | 18 | 315 | 3.2 | 9.7 | 0.03 | 0.05 | 0.05 | 91 | 1020.9 |
| 20260905070854 | 18 | 315 | 3.2 | 9.7 | 0.03 | 0.05 | 0.05 | 91 | 1020.9 |
| 20260905065604 | 18 | 315 | 8.0 | 12.9 | 0.03 | 0.03 | 0.03 | 86 | 1020.8 |
| 20260905064247 | 18 | 315 | 8.0 | 12.9 | 0.03 | 0.03 | 0.03 | 86 | 1020.8 |
| 20260905062957 | 18 | 0 | 0.0 | 9.7 | 0.00 | 0.00 | 0.00 | 79 | 1020.3 |
| 20260905061747 | 18 | 0 | 0.0 | 9.7 | 0.00 | 0.00 | 0.00 | 79 | 1020.3 |
| 20260905060412 | 18 | 0 | 8.0 | 11.3 | 0.00 | 0.00 | 0.00 | 78 | 1020.1 |
| 20260905055117 | 18 | 0 | 8.0 | 11.3 | 0.00 | 0.00 | 0.00 | 78 | 1020.1 |
| 20260905053817 | 18 | 0 | 8.0 | 11.3 | 0.00 | 0.00 | 0.00 | 78 | 1020.1 |
| 20260905052522 | 19 | 315 | 9.7 | 11.3 | 0.00 | 0.00 | 0.00 | 75 | 1019.7 |
| 20260905051217 | 19 | 315 | 9.7 | 11.3 | 0.00 | 0.00 | 0.00 | 75 | 1019.7 |
| 20260905045907 | 18 | 315 | 9.7 | 11.3 | 0.00 | 0.00 | 0.00 | 80 | 1019.6 |
| 20260905044542 | 18 | 315 | 9.7 | 11.3 | 0.00 | 0.00 | 0.00 | 80 | 1019.6 |
| 20260905043257 | 19 | 270 | 4.8 | 9.7 | 0.00 | 0.00 | 0.00 | 76 | 1019.0 |
| 20260905042018 | 19 | 270 | 4.8 | 9.7 | 0.00 | 0.00 | 0.00 | 76 | 1019.0 |
| 20260905040632 | 19 | 270 | 4.8 | 9.7 | 0.00 | 0.00 | 0.00 | 76 | 1019.0 |
| 20260905035257 | 20 | 315 | 8.0 | 14.5 | 0.00 | 0.00 | 0.00 | 70 | 1018.4 |
| 20260905033957 | 20 | 315 | 8.0 | 14.5 | 0.00 | 0.00 | 0.00 | 70 | 1018.4 |
| 20260905032637 | 21 | 315 | 11.3 | 14.5 | 0.00 | 0.00 | 0.00 | 62 | 1017.6 |
| 20260905031242 | 21 | 315 | 11.3 | 14.5 | 0.00 | 0.00 | 0.00 | 62 | 1017.6 |
| 20260905030022 | 20 | 315 | 11.3 | 17.7 | 0.00 | 0.00 | 0.00 | 67 | 1017.5 |
| 20260905024647 | 20 | 315 | 11.3 | 17.7 | 0.00 | 0.00 | 0.00 | 67 | 1017.5 |
| 20260905023307 | 21 | 315 | 9.7 | 17.7 | 0.00 | 0.00 | 0.00 | 65 | 1017.2 |
| 20260905021922 | 21 | 315 | 9.7 | 17.7 | 0.00 | 0.00 | 0.00 | 65 | 1017.2 |
| 20260905020632 | 21 | 315 | 9.7 | 17.7 | 0.00 | 0.00 | 0.00 | 65 | 1017.2 |
| 20260905015327 | 22 | 315 | 9.7 | 14.5 | 0.00 | 0.00 | 0.00 | 59 | 1016.9 |
| 20260905014002 | 22 | 315 | 9.7 | 14.5 | 0.00 | 0.00 | 0.00 | 59 | 1016.9 |
| 20260905012722 | 21 | 315 | 9.7 | 14.5 | 0.00 | 0.00 | 0.00 | 65 | 1017.1 |
| 20260905011402 | 21 | 315 | 9.7 | 14.5 | 0.00 | 0.00 | 0.00 | 65 | 1017.1 |
| 20260905010037 | 20 | 315 | 9.7 | 11.3 | 0.00 | 0.00 | 0.00 | 72 | 1017.1 |
| 20260905004647 | 20 | 315 | 9.7 | 11.3 | 0.00 | 0.00 | 0.00 | 72 | 1017.1 |
| 20260905003257 | 19 | 0 | 6.4 | 9.7 | 0.00 | 0.00 | 0.00 | 75 | 1017.0 |
| 20260905001952 | 19 | 0 | 6.4 | 9.7 | 0.00 | 0.00 | 0.00 | 75 | 1017.0 |
| 20260905000507 | 19 | 0 | 3.2 | 8.0 | 0.00 | 0.00 | 0.00 | 74 | 1017.0 |
| 20260904235123 | 19 | 0 | 3.2 | 8.0 | 0.00 | 0.00 | 0.00 | 74 | 1017.0 |
| 20260904233806 | 19 | 0 | 3.2 | 8.0 | 0.00 | 0.00 | 0.00 | 74 | 1017.0 |
| 20260904232356 | 20 | 0 | 3.2 | 6.4 | 0.00 | 0.00 | 0.00 | 71 | 1016.7 |
| 20260904230937 | 20 | 0 | 3.2 | 6.4 | 0.00 | 0.00 | 0.00 | 71 | 1016.7 |
| 20260904225552 | 20 | 45 | 3.2 | 16.1 | 0.00 | 0.00 | 0.00 | 67 | 1016.7 |
| 20260904224143 | 20 | 45 | 3.2 | 16.1 | 0.00 | 0.00 | 0.00 | 67 | 1016.7 |
| 20260904222912 | 23 | 315 | 6.4 | 16.1 | 0.00 | 0.00 | 0.00 | 56 | 1016.0 |
| 20260904221632 | 23 | 315 | 6.4 | 16.1 | 0.00 | 0.00 | 0.00 | 56 | 1016.0 |
| 20260904220347 | 24 | 315 | 9.7 | 17.7 | 0.00 | 0.00 | 0.00 | 53 | 1015.8 |
| 20260904215112 | 24 | 315 | 9.7 | 17.7 | 0.00 | 0.00 | 0.00 | 53 | 1015.8 |
| 20260904213752 | 24 | 315 | 9.7 | 17.7 | 0.00 | 0.00 | 0.00 | 53 | 1015.8 |
| 20260904212443 | 24 | 315 | 11.3 | 17.7 | 0.00 | 0.00 | 0.00 | 55 | 1015.8 |
| 20260904211047 | 24 | 315 | 11.3 | 17.7 | 0.00 | 0.00 | 0.00 | 55 | 1015.8 |
| 20260904205612 | 25 | 315 | 11.3 | 17.7 | 0.00 | 0.00 | 0.00 | 49 | 1015.4 |
| 20260904204402 | 25 | 315 | 11.3 | 17.7 | 0.00 | 0.00 | 0.00 | 49 | 1015.4 |
| 20260904203102 | 25 | 315 | 8.0 | 14.5 | 0.00 | 0.00 | 0.00 | 56 | 1015.2 |
| 20260904201648 | 25 | 315 | 8.0 | 14.5 | 0.00 | 0.00 | 0.00 | 56 | 1015.2 |
| 20260904200347 | 23 | 315 | 3.2 | 9.7 | 0.00 | 0.00 | 0.00 | 60 | 1015.0 |
| 20260904194937 | 23 | 315 | 3.2 | 9.7 | 0.00 | 0.00 | 0.00 | 60 | 1015.0 |
| 20260904193557 | 25 | 225 | 4.8 | 9.7 | 0.00 | 0.00 | 0.00 | 53 | 1014.4 |
| 20260904192247 | 25 | 225 | 4.8 | 9.7 | 0.00 | 0.00 | 0.00 | 53 | 1014.4 |
| 20260904190847 | 25 | 225 | 4.8 | 9.7 | 0.00 | 0.00 | 0.00 | 53 | 1014.4 |
| 20260904185422 | 27 | 270 | 6.4 | 16.1 | 0.00 | 0.00 | 0.00 | 45 | 1013.6 |
| 20260904184152 | 27 | 270 | 6.4 | 16.1 | 0.00 | 0.00 | 0.00 | 45 | 1013.6 |
| 20260904182842 | 28 | 270 | 9.7 | 16.1 | 0.00 | 0.00 | 0.00 | 43 | 1013.1 |